Regional Weather Roundup
Issued by NWS

Home | Current Version | Previous Version | Text Only | Print | Product List | Glossary Off
Versions: 1 2 3 4 5 6 7 8 9 10 11 12 13 14 15 16 17 18 19 20 21 22 23 24 25 26 27 28 29 30 31 32 33 34 35 36 37 38 39 40 41 42 43 44 45 46 47 48 49 50

000
ASUS43 KDTX 210810
RWRMI
MICHIGAN HOURLY REGIONAL WEATHER ROUNDUP
NATIONAL WEATHER SERVICE DETROIT/PONTIAC MI
300 AM EST SUN JAN 21 2018

NOTE: "FAIR" INDICATES FEW OR NO CLOUDS BELOW 12,000 FEET WITH NO
SIGNIFICANT WEATHER AND/OR OBSTRUCTION TO VISIBILITY.

MIZ047>049-052>055-059>063-066>070-074>076-081>083-210900-
SOUTHEAST LOWER MICHIGAN

CITY           SKY/WX    TMP DP  RH WIND       PRES   REMARKS
ADRIAN         CLOUDY    35  34  96 CALM      30.06S FOG
ALMA           CLOUDY    33  32  96 S10       30.03R WCI  25
ANN ARBOR      CLOUDY    36  35  96 CALM      30.05S FOG
BAD AXE        FAIR      32  28  86 CALM      30.03S
CARO           FAIR      28  27  94 CALM      30.03R FOG
DETROIT CITY   CLOUDY    36  33  89 SW3       30.07R
DETROIT        CLOUDY    37  35  92 CALM      30.07R
FLINT          FAIR      31  29  92 S5        30.04S WCI  26
GROSSE ILE     CLOUDY    35  33  93 CALM      30.06S FOG
HILLSDALE      CLOUDY    36  34  93 SW3       30.02S FOG
HOWELL         CLOUDY    35  33  95 S3        30.03S FOG

CITY           SKY/WX    TMP DP  RH WIND       PRES   REMARKS
JACKSON        CLOUDY    36  34  92 SW3       30.03S FOG
LAMBERTVILLE   CLOUDY    38  36  94 CALM      30.06S FOG
LANSING        CLOUDY    35  34  96 SW5       30.03S FOG     WCI  31
LAPEER         FAIR      31  30  96 SW5       30.03S WCI  27
MONROE         CLOUDY    36  34  93 SW3       30.06R FOG
MT. CLEMENS    CLOUDY   N/A N/A N/A CALM        N/A
PONTIAC        CLOUDY    32  30  92 CALM      30.03S
PORT HOPE        N/A     35  29  78 SW8       30.00R WCI  29
PORT HURON     FAIR      28  27  93 S3        30.06R FOG
TRI CITIES     CLOUDY    32  30  92 S7        30.02S FOG     WCI  26
MIDLAND        MOCLDY    31  30  98 CALM      30.01S
TROY           CLOUDY    34  31  89 CALM      30.07S
SAGINAW HB     FAIR      30  30 100 S7        30.03R WCI  23
$$
MIZ043>046-050>051-056>058-064>065-071>073-077>080-210900-
SOUTHWEST LOWER MICHIGAN

CITY           SKY/WX    TMP DP  RH WIND       PRES   REMARKS
BATTLE CREEK   CLOUDY    35  35 100 S5        30.03R FOG     WCI  31
BENTON HARBOR  CLOUDY    38  33  82 S6        30.02S WCI  33
BIG RAPIDS     FAIR      29  27  92 CALM      29.99R FOG
COLDWATER      CLOUDY    36  36 100 CALM      30.03R FOG
FREMONT        FOG       34  32  92 S3        29.99S VSB 1/4
HOLLAND        CLOUDY    36  34  92 S3        30.01S FOG
GRAND RAPIDS   CLOUDY    35  33  92 S5        30.01R FOG     WCI  31
IONIA          CLOUDY    35  34  96 S6        30.00S FOG     WCI  30
KALAMAZOO      CLOUDY    37  35  92 S5        30.03R FOG     WCI  33
LUDINGTON        N/A     29  29 100 CALM      29.99R FOG
MARSHALL       CLOUDY    35  35  98 CALM      30.03R FOG
MOUNT PLEASANT CLOUDY    34  32  92 SW7       30.00S FOG     WCI  28
MUSKEGON       CLOUDY    37  35  92 S5        30.00S FOG     WCI  33
SOUTH HAVEN    CLOUDY    37  35  90 CALM      30.01S
$$
MIZ016>042-210900-
NORTHERN LOWER MICHIGAN

CITY           SKY/WX    TMP DP  RH WIND       PRES   REMARKS
ALPENA         MOCLDY    26  24  92 CALM      30.00R
BEAVER ISLAND  FAIR      30  29  99 CALM      29.98R FOG
BELLAIRE       CLOUDY    29  29 100 CALM      30.01R
CADILLAC       FAIR      31  30  97 SW3       29.98R FOG
CHARLEVOIX     MOCLDY    30  30 100 CALM      30.02R
FRANKFORT      FAIR      34  32  95 CALM      29.99R FOG
GAYLORD        CLOUDY    29  29 100 S3        29.98R FOG
GRAYLING       FAIR      31  28  89 CALM      29.99R
HARBOR SPRINGS FAIR      28  28  98 CALM      29.99R
HOUGHTON LAKE  FAIR      29  27  92 CALM      29.99R
MANISTEE       FAIR      30  28  92 E3        29.99R FOG
OSCODA         FAIR      27  26  94 SW5       30.01R WCI  22
PELLSTON       FAIR      26  25  96 CALM      30.00R
ROGERS CITY    FAIR      29  27  93 S3        30.01R
TRAVERSE CITY  FAIR      32  30  92 S3        29.98R
$$
MIZ007>008-015-210900-
EASTERN UPPER MICHIGAN

CITY           SKY/WX    TMP DP  RH WIND       PRES   REMARKS
KINROSS        FAIR      27  27 100 CALM      29.98R FOG
MACKINAC ISLAN FAIR      31  31 100 SW7       29.99R WCI  24
NEWBERRY       FAIR      26  25  97 S7        29.96R WCI  18
S. S. MARIE    FAIR      30  26  85 CALM      29.97R
MUNISING         N/A     28  28 100 CALM      29.95R
$$
MIZ004>006-011>014-085-210900-
CENTRAL UPPER MICHIGAN

CITY           SKY/WX    TMP DP  RH WIND       PRES   REMARKS
ESCANABA       CLOUDY    27  27 100 CALM      29.96S
MENOMINEE      FAIR      32  28  85 CALM      29.97R
SAWYER-GWINN   FAIR      26  24  95 CALM      29.94R FOG
$$
MIZ001>003-009>011-084-210900-
WESTERN UPPER MICHIGAN

CITY           SKY/WX    TMP DP  RH WIND       PRES   REMARKS
IRON MOUNTAIN  MOCLDY    27  24  89 CALM      29.92S
HOUGHTON       FAIR      28  25  88 NW5       29.91R WCI  23
COPPER HARBOR    N/A     30  27  88 SW5       29.93S WCI  25
IRONWOOD       FOG       25  25 100 CALM      29.94R VSB 3/4
$$

ABBREVIATIONS USED IN REMARKS
   TC - TEMPERATURE IN CELSIUS
  WCI - WIND CHILL INDEX
   HX - HEAT INDEX
  VSB - VISIBILITY





USA.gov is the U.S. government's official web portal to all federal, state and local government web resources and services.